Time,TemperatureF,DewpointF,PressureIn,WindDirection,WindDirectionDegrees,WindSpeedMPH,WindSpeedGustMPH,Humidity,HourlyPrecipIn,Conditions,Clouds,dailyrainin,SoftwareType,DateUTC
2013-04-16 09:52:00,40.0,27.0,29.91,NW,320,13.0,22.0,59,0.00,,,0.00,,2013-04-16 14:52:00,
2013-04-16 10:02:00,40.0,27.0,29.91,NW,320,13.0,22.0,59,0.00,,,0.00,,2013-04-16 15:02:00,
2013-04-16 10:12:00,40.0,27.0,29.91,NW,320,13.0,22.0,59,0.00,,,0.00,,2013-04-16 15:12:00,
2013-04-16 10:22:00,40.0,27.0,29.91,NW,320,13.0,22.0,59,0.00,,,0.00,,2013-04-16 15:22:00,
2013-04-16 10:33:00,42.0,30.0,29.94,NW,311,12.0,22.0,61,0.00,,,0.00,,2013-04-16 15:33:00,
2013-04-16 10:43:00,42.0,30.0,29.94,NW,311,12.0,22.0,61,0.00,,,0.00,,2013-04-16 15:43:00,
2013-04-16 10:53:00,42.0,29.0,29.94,NW,320,13.0,24.0,60,0.00,,,0.00,,2013-04-16 15:53:00,
2013-04-16 11:03:00,42.0,29.0,29.94,NW,321,13.0,25.0,60,0.00,,,0.00,,2013-04-16 16:03:00,
2013-04-16 11:13:00,42.0,29.0,29.94,NW,321,13.0,25.0,60,0.00,,,0.00,,2013-04-16 16:13:00,
2013-04-16 11:23:00,42.0,29.0,29.96,NW,314,13.0,26.0,59,0.00,,,0.00,,2013-04-16 16:23:00,
2013-04-16 11:32:00,42.0,30.0,29.97,NW,317,13.0,22.0,62,0.00,,,0.00,,2013-04-16 16:32:00,
2013-04-16 11:42:00,42.0,30.0,29.97,NW,317,13.0,22.0,62,0.00,,,0.00,,2013-04-16 16:42:00,
2013-04-16 11:53:00,42.0,29.0,29.97,NW,322,14.0,22.0,60,0.00,,,0.00,,2013-04-16 16:53:00,
2013-04-16 12:02:00,42.0,28.0,29.97,NW,308,13.0,21.0,58,0.00,,,0.00,,2013-04-16 17:02:00,
2013-04-16 12:12:00,42.0,28.0,29.97,NW,308,13.0,21.0,58,0.00,,,0.00,,2013-04-16 17:12:00,
2013-04-16 12:22:00,42.0,28.0,29.97,NW,310,12.0,20.0,58,0.00,,,0.00,,2013-04-16 17:22:00,
2013-04-16 12:32:00,43.0,29.0,29.98,NW,317,12.0,24.0,57,0.00,,,0.00,,2013-04-16 17:32:00,
2013-04-16 12:43:00,43.0,29.0,29.98,NW,317,12.0,24.0,57,0.00,,,0.00,,2013-04-16 17:43:00,
2013-04-16 12:52:00,43.0,29.0,29.98,NW,317,12.0,24.0,57,0.00,,,0.00,,2013-04-16 17:52:00,
2013-04-16 13:02:00,43.0,29.0,29.98,NW,317,12.0,24.0,57,0.00,,,0.00,,2013-04-16 18:02:00,
2013-04-16 13:32:00,45.0,30.0,29.99,NW,308,10.0,22.0,55,0.00,,,0.00,,2013-04-16 18:32:00,
2013-04-16 13:43:00,45.0,30.0,29.99,NW,308,10.0,22.0,55,0.00,,,0.00,,2013-04-16 18:43:00,
2013-04-16 13:52:00,45.0,29.0,30.01,WNW,301,9.0,20.0,54,0.00,,,0.00,,2013-04-16 18:52:00,
2013-04-16 14:02:00,45.0,29.0,30.01,NW,315,10.0,20.0,54,0.00,,,0.00,,2013-04-16 19:02:00,
2013-04-16 14:12:00,45.0,29.0,30.01,NW,315,10.0,20.0,54,0.00,,,0.00,,2013-04-16 19:12:00,
2013-04-16 14:22:00,46.0,30.0,30.02,NW,310,11.0,20.0,54,0.00,,,0.00,,2013-04-16 19:22:00,
2013-04-16 14:32:00,46.0,28.0,30.02,NW,322,10.0,21.0,50,0.00,,,0.00,,2013-04-16 19:32:00,
2013-04-16 14:42:00,46.0,28.0,30.02,NW,322,10.0,21.0,50,0.00,,,0.00,,2013-04-16 19:42:00,
2013-04-16 14:52:00,46.0,28.0,30.02,NW,322,10.0,21.0,50,0.00,,,0.00,,2013-04-16 19:52:00,
2013-04-16 15:02:00,47.0,28.0,30.02,NW,307,12.0,19.0,48,0.00,,,0.00,,2013-04-16 20:02:00,
2013-04-16 15:12:00,47.0,28.0,30.02,NW,307,12.0,19.0,48,0.00,,,0.00,,2013-04-16 20:12:00,
2013-04-16 15:22:00,47.0,29.0,30.02,NW,304,10.0,18.0,49,0.00,,,0.00,,2013-04-16 20:22:00,
2013-04-16 15:32:00,48.0,29.0,30.02,NNW,336,10.0,18.0,48,0.00,,,0.00,,2013-04-16 20:32:00,
2013-04-16 15:42:00,48.0,29.0,30.02,NNW,336,10.0,18.0,48,0.00,,,0.00,,2013-04-16 20:42:00,
2013-04-16 15:52:00,48.0,29.0,30.02,NNW,336,10.0,18.0,48,0.00,,,0.00,,2013-04-16 20:52:00,
2013-04-16 16:02:00,48.0,29.0,30.02,NNW,336,10.0,18.0,48,0.00,,,0.00,,2013-04-16 21:02:00,
2013-04-16 16:22:00,49.0,29.0,30.03,NNW,334,8.0,13.0,46,0.00,,,0.00,,2013-04-16 21:22:00,
2013-04-16 16:32:00,49.0,28.0,30.03,NNW,330,9.0,13.0,44,0.00,,,0.00,,2013-04-16 21:32:00,
2013-04-16 16:43:00,49.0,28.0,30.03,NNW,330,9.0,13.0,44,0.00,,,0.00,,2013-04-16 21:43:00,
2013-04-16 16:52:00,49.0,28.0,30.03,NNW,330,9.0,13.0,44,0.00,,,0.00,,2013-04-16 21:52:00,
2013-04-16 17:00:00,50.0,27.0,30.05,NNW,335,4.0,8.0,40,0.00,,,0.00,,2013-04-16 22:00:00,
2013-04-16 17:02:00,49.0,29.0,30.04,North,349,7.0,12.0,45,0.00,,,0.00,,2013-04-16 22:02:00,
2013-04-16 17:13:00,49.0,29.0,30.04,North,349,7.0,12.0,45,0.00,,,0.00,,2013-04-16 22:13:00,
2013-04-16 17:22:00,50.0,27.0,30.05,NNW,335,4.0,8.0,40,0.00,,,0.00,,2013-04-16 22:22:00,
2013-04-16 17:33:00,50.0,27.0,30.05,NNW,335,4.0,8.0,40,0.00,,,0.00,,2013-04-16 22:33:00,
2013-04-16 17:42:00,50.0,27.0,30.05,NNW,335,4.0,8.0,40,0.00,,,0.00,,2013-04-16 22:42:00,
2013-04-16 17:52:00,50.0,27.0,30.05,NNW,335,4.0,8.0,40,0.00,,,0.00,,2013-04-16 22:52:00,
2013-04-16 18:22:00,49.0,24.0,30.07,NNW,348,5.0,10.0,37,0.00,,,0.00,,2013-04-16 23:22:00,
2013-04-16 18:32:00,49.0,25.0,30.07,North,354,5.0,8.0,38,0.00,,,0.00,,2013-04-16 23:32:00,
2013-04-16 18:43:00,49.0,25.0,30.07,North,354,5.0,8.0,38,0.00,,,0.00,,2013-04-16 23:43:00,
2013-04-16 18:52:00,49.0,25.0,30.07,North,354,5.0,8.0,38,0.00,,,0.00,,2013-04-16 23:52:00,
2013-04-16 19:02:00,49.0,25.0,30.08,North,355,2.0,6.0,39,0.00,,,0.00,,2013-04-17 00:02:00,
2013-04-16 19:12:00,49.0,25.0,30.08,North,355,2.0,6.0,39,0.00,,,0.00,,2013-04-17 00:12:00,
2013-04-16 19:22:00,48.0,25.0,30.08,North,354,2.0,6.0,40,0.00,,,0.00,,2013-04-17 00:22:00,
2013-04-16 19:32:00,48.0,27.0,30.09,North,1,1.0,3.0,43,0.00,,,0.00,,2013-04-17 00:32:00,
2013-04-16 19:42:00,48.0,27.0,30.09,North,1,1.0,3.0,43,0.00,,,0.00,,2013-04-17 00:42:00,
2013-04-16 19:52:00,46.0,26.0,30.09,North,1,0.0,2.0,45,0.00,,,0.00,,2013-04-17 00:52:00,
2013-04-16 20:02:00,46.0,26.0,30.09,North,0,0.0,0.0,46,0.00,,,0.00,,2013-04-17 01:02:00,
2013-04-16 20:12:00,46.0,26.0,30.09,North,0,0.0,0.0,46,0.00,,,0.00,,2013-04-17 01:12:00,
2013-04-16 20:22:00,44.0,26.0,30.11,East,90,0.0,4.0,49,0.00,,,0.00,,2013-04-17 01:22:00,
2013-04-16 20:32:00,43.0,28.0,30.11,North,0,0.0,0.0,54,0.00,,,0.00,,2013-04-17 01:32:00,
2013-04-16 20:42:00,43.0,28.0,30.11,North,0,0.0,0.0,54,0.00,,,0.00,,2013-04-17 01:42:00,
2013-04-16 20:52:00,43.0,28.0,30.11,North,0,0.0,0.0,54,0.00,,,0.00,,2013-04-17 01:52:00,
2013-04-16 21:02:00,43.0,28.0,30.11,North,0,0.0,0.0,54,0.00,,,0.00,,2013-04-17 02:02:00,
2013-04-16 21:12:00,43.0,28.0,30.11,North,0,0.0,0.0,54,0.00,,,0.00,,2013-04-17 02:12:00,